Regional Weather Roundup
Issued by NWS Little Rock, AR

Home | Current Version | Previous Version | Graphics & Text | Print | Product List | Glossary On
Versions: 1 2 3 4 5 6 7 8 9 10 11 12 13 14 15 16 17 18 19 20 21 22 23 24 25 26 27 28 29 30 31 32 33 34 35 36 37 38 39 40 41 42 43 44 45 46 47 48 49 50
000
ASUS44 KLZK 300505
RWRLZK

WEATHER ROUNDUP FOR ARKANSAS
NATIONAL WEATHER SERVICE LITTLE ROCK AR
1200 AM CDT TUE SEP 30 2014

NOTE: "FAIR" INDICATES FEW OR NO CLOUDS BELOW 12,000 FEET WITH NO
SIGNIFICANT WEATHER AND/OR OBSTRUCTIONS TO VISIBILITY.

ARZ001-003-010-029-300600-
NORTHWEST ARKANSAS

CITY           SKY/WX    TMP DP  RH WIND       PRES   REMARKS
FAYETTEVILLE   CLEAR     59  59 100 CALM      29.99S
FORT SMITH     CLEAR     69  64  84 CALM      29.94S
HARRISON       CLEAR     64  60  87 E3        29.99S
BENTONVILLE    CLEAR     64  57  77 CALM      29.99S
ROGERS         CLEAR     66  59  78 SE6       30.00S
SILOAM SPGS    CLEAR     63  55  77 E6        29.99S
HIGHFILL       CLEAR     63  58  83 CALM      29.98S
$$

ARZ004-005-016-300600-
NORTH CENTRAL ARKANSAS

CITY           SKY/WX    TMP DP  RH WIND       PRES   REMARKS
BATESVILLE     CLEAR     64  57  77 CALM      29.96S
FLIPPIN        CLEAR     63  54  72 CALM      29.97S
MTN HOME       PTCLDY    67  59  75 S3        29.97S
$$

ARZ040-041-300600-
WEST CENTRAL ARKANSAS

CITY           SKY/WX    TMP DP  RH WIND       PRES   REMARKS
MENA             N/A     61  61 100 CALM      29.97F
MOUNT IDA      CLEAR     62  60  93 CALM      29.94F FOG
$$

ARZ009-017-025-026-028-300600-
NORTHEAST ARKANSAS

CITY           SKY/WX    TMP DP  RH WIND       PRES   REMARKS
CORNING          N/A     63  57  82 N5        29.96S
JONESBORO      CLEAR     62  56  80 CALM      29.95S
NEWPORT        CLOUDY    63  59  87 CALM      29.96S FOG
WALNUT RIDGE   CLEAR     63  57  82 N3        29.94S
BLYTHEVILLE    CLEAR     64  58  80 N3        29.95S
$$

ARZ022-023-033-042-044-300600-
CENTRAL ARKANSAS

CITY           SKY/WX    TMP DP  RH WIND       PRES   REMARKS
LITTLE ROCK    PTCLDY    68  61  78 CALM      29.95S
N LITTLE ROCK  PTCLDY    71  61  70 NE3       29.95S
JACKSONVILLE   CLEAR     63  59  86 CALM      29.95S
SEARCY         CLEAR     63  60  90 CALM      29.96S
HOT SPRINGS    CLEAR     65  59  81 CALM      29.95F
RUSSELLVILLE   CLEAR     64  62  93 CALM      29.95S
CLINTON        FAIR      63  61  94 CALM      29.98S FOG
$$

ARZ036-300600-
EAST ARKANSAS

CITY           SKY/WX    TMP DP  RH WIND       PRES   REMARKS
WEST MEMPHIS   CLEAR     63  60  90 CALM      29.93S
$$

ARZ050-053-066-070-073-300600-
SOUTHWEST ARKANSAS

CITY           SKY/WX    TMP DP  RH WIND       PRES   REMARKS
ARKADELPHIA    FAIR      64  64 100 CALM      29.94S FOG
CAMDEN         CLEAR     63  59  88 CALM      29.93S
TEXARKANA      CLEAR     67  62  84 CALM      29.93S
EL DORADO      CLEAR     66  62  87 CALM      29.93S
DE QUEEN       FOG       63  63 100 CALM      29.92S VSB 1/2
$$

ARZ056-057-069-300600-
SOUTHEAST ARKANSAS

CITY           SKY/WX    TMP DP  RH WIND       PRES   REMARKS
PINE BLUFF     CLEAR     65  60  84 CALM      29.94S
STUTTGART      CLEAR    N/A N/A N/A NE3       29.94F
MONTICELLO     CLEAR     66  61  84 CALM      29.93S

$$




USA.gov is the U.S. government's official web portal to all federal, state and local government web resources and services.